TIME,�g��[���C[MJ/h],����[MJ/h],�Ɩ�[MJ/h],�~�[[MJ/h],�①��[MJ/h],��y���[MJ/h],�Ǝ��q��[MJ/h],���̑�[MJ/h],�����G�l���M�[[MJ/h]
2003/4/1 0:00,6.3926,0,0,0.0753,0.3696,0.3607,0.1816,0.9973,0
2003/4/1 0:15,1.1547,0,0,0.1204,0.396,0.0426,0.1371,0.3267,0
2003/4/1 0:30,1.4738,0,0,0.1328,0.396,0.0431,0.1364,0.2844,0
2003/4/1 0:45,0,0,0,0.1341,0.3966,0.0432,0.1901,0.3217,0
2003/4/1 1:00,0,0,0,0.1369,0.3947,0.0428,0.1205,0.3135,0
2003/4/1 1:15,2.3413,0,0,0.1371,0.3943,0.0429,0.1264,0.2416,0
2003/4/1 1:30,11.4083,0,0,0.1382,0.3923,0.0426,0.1267,0.2991,0
2003/4/1 1:45,1.4733,0,0,0.14,0.3947,0.0431,0.1728,0.3845,0
2003/4/1 2:00,0.0003,0,0,0.1388,0.395,0.0431,0.1274,0.3158,0
2003/4/1 2:15,0.4729,0,0,0.1364,0.3959,0.0433,0.1276,0.3102,0
2003/4/1 2:30,1.5255,0,0,0.1395,0.3963,0.0436,0.1763,0.292,0
2003/4/1 2:45,0.1202,0,0,0.1394,0.3947,0.0433,0.1283,0.3205,0
2003/4/1 3:00,9.6422,0,0,0.1351,0.3907,0.0428,0.128,0.282,0
2003/4/1 3:15,3.5385,0,0,0.1414,0.391,0.0426,0.1799,0.3601,0
2003/4/1 3:30,1.3844,0,0,0.138,0.3923,0.0432,0.1286,0.2953,0
2003/4/1 3:45,0.7161,0,0,0.139,0.3914,0.0431,0.1284,0.3037,0
2003/4/1 4:00,0.0039,0,0,0.1417,0.3905,0.0429,0.1806,0.3161,0
2003/4/1 4:15,0.3999,0,0,0.138,0.3905,0.0431,0.129,0.2542,0
2003/4/1 4:30,10.6698,0,0,0.1384,0.3889,0.0426,0.1306,0.2814,0
2003/4/1 4:45,4.0732,0,0,0.1411,0.3887,0.0428,0.1627,0.3496,0
2003/4/1 5:00,0.0868,0,0,0.1387,0.3882,0.0428,0.1502,0.309,0
2003/4/1 5:15,0.0017,0,0,0.141,0.3878,0.0428,0.1308,0.311,0
2003/4/1 5:30,0.0012,0,0,0.1394,0.3879,0.0431,0.1335,0.3213,0
2003/4/1 5:45,3.7416,0,0,0.1388,0.3878,0.0429,0.1835,0.2642,0
2003/4/1 6:00,11.1532,0,0,0.1414,0.3869,0.0428,0.1153,0.7106,0
2003/4/1 6:15,0.5093,0,0,0.1377,0.3882,0.0832,0.1287,0.6654,0
2003/4/1 6:30,0.0009,0,0,0.1392,0.3871,0.4097,0.0819,0.8009,0
2003/4/1 6:45,0.0658,0,0,0.1426,0.3849,0.4033,0.0804,1.0467,0
2003/4/1 7:00,1.4658,0,0,0.1384,0.3848,0.4211,0.1312,1.1298,0
2003/4/1 7:15,6.0758,0,0,0.1423,0.5266,0.4033,0.0819,1.0992,0
2003/4/1 7:30,7.9815,0,0,0.2115,0.4876,0.4186,0.0837,1.2361,0
2003/4/1 7:45,0.002,0,0,1.0868,0.383,0.4136,0.1364,1.3092,0
2003/4/1 8:00,0.0026,0,0,0.1387,0.3888,0.4166,0.1254,1.5404,0
2003/4/1 8:15,0.0039,0,0,0.1368,0.3963,0.0786,0.0903,0.4058,0
2003/4/1 8:30,0.0012,0,0,0.1404,0.4003,0.0788,0.1329,0.3855,0
2003/4/1 8:45,0.0003,0,0,0.1405,0.3997,0.0429,0.0881,0.373,0
2003/4/1 9:00,0.0016,0,0,0.1375,0.3997,0.0428,0.1394,0.3859,0
2003/4/1 9:15,0.0009,0,0,0.1369,0.4008,0.0429,0.0899,0.3793,0
2003/4/1 9:30,0.0014,0,0,0.1362,0.4015,0.0431,0.0861,0.3938,0
2003/4/1 9:45,0.0012,0,0,0.1382,0.402,0.0428,0.0855,0.3809,0
2003/4/1 10:00,0.0006,0,0,0.1381,0.4026,0.0431,0.1329,0.3806,0
2003/4/1 10:15,0.0009,0,0,0.1372,0.4026,0.0428,0.0871,0.3709,0
2003/4/1 10:30,0.0007,0,0,0.1338,0.4026,0.0428,0.1369,0.3812,0
2003/4/1 10:45,0.0012,0,0,0.139,0.4042,0.0432,0.0837,0.3851,0
2003/4/1 11:00,0.0014,0,0,0.1359,0.4042,0.0428,0.0837,0.3792,0
2003/4/1 11:15,0.0039,0,0,0.1362,0.4046,0.0431,0.0828,0.373,0
2003/4/1 11:30,0.0032,0,0,0.1372,0.4056,0.0429,0.1371,0.3786,0
2003/4/1 11:45,0.0046,0,0,0.1359,0.4056,0.0429,0.0837,0.3803,0
2003/4/1 12:00,0.0059,0,0,0.1369,0.4071,0.0603,0.0825,0.374,0
2003/4/1 12:15,0.0035,0,0,0.1333,0.4084,0.0429,0.1194,0.3691,0
2003/4/1 12:30,0.0059,0,0,0.1374,0.4095,0.0435,0.0691,0.3773,0
2003/4/1 12:45,0.006,0,0,0.1331,0.4103,0.0436,0.0691,0.3671,0
2003/4/1 13:00,0.001,0,0,0.1365,0.4059,0.0428,0.1168,0.3803,0
2003/4/1 13:15,0.0006,0,0,0.1374,0.4046,0.0422,0.0675,0.3771,0
2003/4/1 13:30,0.0003,0,0,0.1336,0.4054,0.0422,0.0675,0.3645,0
2003/4/1 13:45,0.0006,0,0,0.1348,0.4051,0.0426,0.0864,0.3835,0
2003/4/1 14:00,0.0006,0,0,0.1375,0.4059,0.0425,0.1306,0.3796,0
2003/4/1 14:15,0.0006,0,0,0.1344,0.4056,0.0426,0.0783,0.3849,0
2003/4/1 14:30,0.001,0,0,0.1367,0.4059,0.0425,0.0786,0.3724,0
2003/4/1 14:45,0.0003,0,0,0.1326,0.4055,0.0426,0.1289,0.3771,0
2003/4/1 15:00,0,0,0,0.1365,0.4054,0.0426,0.0793,0.374,0
2003/4/1 15:15,0.0003,0,0,0.1367,0.4052,0.0423,0.0789,0.3751,0
2003/4/1 15:30,0,0,0,0.1352,0.4062,0.0426,0.129,0.376,0
2003/4/1 15:45,0,0,0,0.1362,0.4052,0.0423,0.0783,0.376,0
2003/4/1 16:00,0.0009,0,0,0.1335,0.4071,0.0428,0.0765,0.3807,0
2003/4/1 16:15,0.0003,0,0,0.1371,0.4068,0.0428,0.0776,0.372,0
2003/4/1 16:30,0,0,0,0.1361,0.4054,0.0426,0.1297,0.3717,0
2003/4/1 16:45,0.0004,0,0,0.1348,0.4048,0.0425,0.0786,0.3747,0
2003/4/1 17:00,0,0,0,0.138,0.4033,0.0422,0.0792,0.3728,0
2003/4/1 17:15,0.0003,0,0,0.1368,0.4015,0.042,0.1282,0.3754,0
2003/4/1 17:30,0,0,0,0.1427,0.4026,0.0425,0.0769,0.374,0
2003/4/1 17:45,0.0006,0,0,0.1354,0.4012,0.042,0.0795,0.3728,0
2003/4/1 18:00,0.0014,0,0,0.1367,0.401,0.0422,0.1313,0.3783,0
2003/4/1 18:15,0.0048,0,0,0.1371,0.4044,0.0431,0.0815,0.4241,0
2003/4/1 18:30,0.0036,0,0,0.1384,0.4035,0.0429,0.0821,0.427,0
2003/4/1 18:45,0.0032,0,0,0.1392,0.4029,0.0431,0.0818,0.4242,0
2003/4/1 19:00,0.0032,0,0,0.1387,0.4029,0.06,0.1367,0.4268,0
2003/4/1 19:15,0.0055,0,0,0.1365,0.4023,0.0428,0.0801,0.4239,0
2003/4/1 19:30,0.001,0,0,0.1411,0.4015,0.0428,0.0799,0.4268,0
2003/4/1 19:45,0.0009,0,0,0.1387,0.4018,0.0429,0.1312,0.4278,0
2003/4/1 20:00,0.0003,0,0,0.1403,0.4018,0.0429,0.0822,0.4251,0
2003/4/1 20:15,0.0014,0,0,0.1392,0.4018,0.0432,0.0824,0.4272,0
2003/4/1 20:30,0.0007,0,0,0.1408,0.4016,0.0429,0.0825,0.435,0
2003/4/1 20:45,0.0003,0,0,0.1371,0.4016,0.0431,0.1276,0.4304,0
2003/4/1 21:00,0,0,0,0.1417,0.4013,0.0762,0.0831,0.4311,0
2003/4/1 21:15,0.0006,0,0,0.1428,0.4016,0.1086,0.0837,0.4245,0
2003/4/1 21:30,0.0017,0,0,0.1404,0.3983,0.1081,0.1381,0.4277,0
2003/4/1 21:45,0.0012,0,0,0.1391,0.3977,0.1074,0.085,0.4245,0
2003/4/1 22:00,1.1425,0,0,0.1397,0.398,0.0841,0.0671,0.4247,0
2003/4/1 22:15,11.463,0,0,0.4346,0.4558,0.4173,0.1204,0.992,0
2003/4/1 22:30,11.4994,0,0,0.1463,0.597,0.4101,0.0723,1.2908,0
2003/4/1 22:45,11.3993,0,0,0.1351,0.3552,0.3989,0.0723,1.5633,0
2003/4/1 23:00,11.2939,0,0,0.1413,0.3806,0.3954,0.1276,1.2874,0
2003/4/1 23:15,11.3638,0,0,0.1371,0.3879,0.4082,0.0733,1.2495,0
2003/4/1 23:30,11.3784,0,0,0.1428,0.3917,0.4234,0.0888,1.2819,0
2003/4/1 23:45,11.3872,0,0,0.1407,0.3931,0.4529,0.0795,1.0708,0
2003/4/2 0:00,11.472,0,0,0.1431,0.3944,0.4429,0.1293,1.1732,0
2003/4/2 0:15,6.4349,0,0,0.1372,0.3943,0.4519,0.0837,1.1344,0
2003/4/2 0:30,1.4842,0,0,0.1387,0.3961,0.462,0.088,1.2888,0
2003/4/2 0:45,7.9047,0,0,0.1411,0.3972,0.4658,0.1938,0.9372,0
2003/4/2 1:00,11.5917,0,0,0.141,0.3972,0.4009,0.1303,0.6883,0
2003/4/2 1:15,3.3114,0,0,0.1408,0.3989,0.0876,0.1359,0.3069,0
2003/4/2 1:30,0.7089,0,0,0.1401,0.3995,0.0874,0.1849,0.2962,0
2003/4/2 1:45,3.6209,0,0,0.1398,0.3977,0.0873,0.1356,0.2966,0
2003/4/2 2:00,11.506,0,0,0.1398,0.3963,0.0871,0.1375,0.27,0
2003/4/2 2:15,3.3723,0,0,0.1423,0.3983,0.0874,0.1878,0.2612,0
2003/4/2 2:30,0.1014,0,0,0.1439,0.3993,0.0877,0.1371,0.3021,0
2003/4/2 2:45,0.0014,0,0,0.1391,0.4,0.0877,0.1375,0.312,0
2003/4/2 3:00,9.4627,0,0,0.143,0.3973,0.0873,0.1824,0.2795,0
2003/4/2 3:15,7.7628,0,0,0.1408,0.395,0.087,0.1394,0.2749,0
2003/4/2 3:30,0.0003,0,0,0.1417,0.396,0.0871,0.1519,0.3025,0
2003/4/2 3:45,0.0012,0,0,0.1428,0.396,0.0871,0.1708,0.304,0
2003/4/2 4:00,1.0754,0,0,0.1388,0.396,0.0873,0.1377,0.2632,0
2003/4/2 4:15,10.0974,0,0,0.141,0.3951,0.0871,0.1806,0.2841,0
2003/4/2 4:30,5.4171,0,0,0.1428,0.3966,0.087,0.1394,0.2953,0
2003/4/2 4:45,0.0003,0,0,0.1433,0.3974,0.0874,0.1359,0.2976,0
2003/4/2 5:00,0.635,0,0,0.1439,0.3972,0.087,0.1856,0.2879,0
2003/4/2 5:15,1.4871,0,0,0.1411,0.3954,0.0871,0.1358,0.2753,0
2003/4/2 5:30,8.2168,0,0,0.1423,0.3936,0.0868,0.1405,0.2923,0
2003/4/2 5:45,5.9944,0,0,0.1411,0.3937,0.0868,0.1888,0.2894,0
2003/4/2 6:00,0.1668,0,0,0.143,0.394,0.0873,0.1416,0.2925,0
2003/4/2 6:15,1.4818,0,0,0.1464,0.3911,0.087,0.1536,0.2697,0
2003/4/2 6:30,0.5183,0,0,0.139,0.3907,0.0871,0.2013,0.2867,0
2003/4/2 6:45,6.6038,0,0,0.1413,0.3889,0.0865,0.1477,0.2835,0
2003/4/2 7:00,7.3875,0,0,0.145,0.3915,0.0873,0.1513,0.2897,0
2003/4/2 7:15,1.0824,0,0,0.1452,0.3907,0.087,0.199,0.2752,0
2003/4/2 7:30,1.0824,0,0,0.1413,0.3908,0.1034,0.1333,0.2995,0
2003/4/2 7:45,0.0003,0,0,0.1427,0.3917,0.4247,0.1391,0.7976,0
2003/4/2 8:00,0.0003,0,0,0.141,0.3908,0.4183,0.086,1.0024,0
2003/4/2 8:15,0.0006,0,0,0.1446,0.3918,0.239,0.1326,0.6119,0
2003/4/2 8:30,0,0,0,0.1382,0.3895,0.0783,0.0985,0.3973,0
2003/4/2 8:45,0,0,0,0.1469,0.3875,0.0422,0.1328,0.3959,0
2003/4/2 9:00,0,0,0,0.1384,0.3871,0.0422,0.0923,0.3905,0
2003/4/2 9:15,0.0001,0,0,0.1427,0.3869,0.0425,0.1388,0.394,0
2003/4/2 9:30,0,0,0,0.1401,0.3838,0.0418,0.0922,0.3993,0
2003/4/2 9:45,0,0,0,0.1463,0.3842,0.0425,0.0922,0.3931,0
2003/4/2 10:00,0,0,0,0.1423,0.3871,0.0426,0.1329,0.396,0
2003/4/2 10:15,0,0,0,0.1405,0.3869,0.0429,0.0929,0.3953,0
2003/4/2 10:30,0,0,0,0.1428,0.3889,0.0432,0.0923,0.4003,0
2003/4/2 10:45,0,0,0,0.1424,0.3895,0.0435,0.1414,0.4002,0
2003/4/2 11:00,0,0,0,0.1413,0.3894,0.0433,0.0935,0.4095,0
2003/4/2 11:15,0,0,0,0.1449,0.3888,0.0433,0.0916,0.3999,0
2003/4/2 11:30,0,0,0,0.1436,0.3876,0.0431,0.14,0.39,0
2003/4/2 11:45,0,0,0,0.1387,0.3872,0.0431,0.0937,0.3923,0
2003/4/2 12:00,0,0,0,0.1423,0.3878,0.0606,0.0914,0.4038,0
2003/4/2 12:15,0,0,0,0.1421,0.3838,0.0423,0.1264,0.3871,0
2003/4/2 12:30,0,0,0,0.1427,0.3838,0.0422,0.0827,0.3836,0
2003/4/2 12:45,0,0,0,0.1452,0.3839,0.0423,0.0819,0.3956,0
2003/4/2 13:00,0,0,0,0.1391,0.3835,0.0423,0.1293,0.3885,0
2003/4/2 13:15,0,0,0,0.1454,0.3825,0.0423,0.0835,0.3859,0
2003/4/2 13:30,0,0,0,0.1398,0.5695,0.0425,0.1331,0.3822,0
2003/4/2 13:45,0,0,0,0.1439,0.4402,0.0423,0.0973,0.3828,0
2003/4/2 14:00,0,0,0,0.1436,0.3658,0.0425,0.093,0.3895,0
2003/4/2 14:15,0,0,0,0.143,0.3721,0.0425,0.1436,0.3954,0
2003/4/2 14:30,0,0,0,0.1418,0.3763,0.0426,0.0935,0.3905,0
2003/4/2 14:45,0,0,0,0.1466,0.3792,0.0423,0.0912,0.3996,0
2003/4/2 15:00,0,0,0,0.1416,0.381,0.0425,0.1466,0.395,0
2003/4/2 15:15,0,0,0,0.142,0.3806,0.0428,0.0948,0.4012,0
2003/4/2 15:30,0,0,0,0.1439,0.3812,0.0425,0.0922,0.3878,0
2003/4/2 15:45,0,0,0,0.1454,0.3807,0.0425,0.1482,0.3905,0
2003/4/2 16:00,0,0,0,0.1401,0.3804,0.0425,0.0946,0.3941,0
2003/4/2 16:15,0,0,0,0.1431,0.3796,0.0423,0.0946,0.3948,0
2003/4/2 16:30,0,0,0,0.1447,0.3783,0.0422,0.1411,0.4944,0
2003/4/2 16:45,0,0,0,0.1439,0.3789,0.0423,0.0976,1.2629,0
2003/4/2 17:00,0,0,0,0.1449,0.383,0.0428,0.0917,1.3501,0
2003/4/2 17:15,0,0,0,0.6448,0.3822,0.0429,0.4236,1.1873,0
2003/4/2 17:30,0,0,0,0.1421,0.3833,0.0425,0.4036,1.1238,0
2003/4/2 17:45,0,0,0,0.1414,0.3829,0.0428,0.4581,1.0197,0
2003/4/2 18:00,0,0,0,0.16,0.3819,0.0425,0.545,1.1208,0
2003/4/2 18:15,0,0,0,3.4633,0.381,0.0425,0.4736,1.3624,0
2003/4/2 18:30,0,0,0,4.0294,0.3804,0.0423,0.4656,1.418,0
2003/4/2 18:45,0,0,0,1.7882,0.3819,0.1279,0.5139,1.3477,0
2003/4/2 19:00,0,0,0,2.0529,0.3822,0.4226,0.5892,1.4652,0
2003/4/2 19:15,0,0,0,1.7961,0.3842,0.4052,0.4939,1.2656,0
2003/4/2 19:30,0,0,0,0.1719,0.3866,0.1011,0.4422,1.0876,0
2003/4/2 19:45,0,0,0,0.1721,0.3858,0.0423,0.4316,1.0607,0
2003/4/2 20:00,0,0,0,0.1695,0.3855,0.0425,0.473,1.1612,0
2003/4/2 20:15,0,0,0,0.2051,0.3862,0.0426,0.4248,1.5548,0
2003/4/2 20:30,0,0,0,0.215,0.3862,0.3162,0.4733,1.4499,0
2003/4/2 20:45,0,0,0,0.2127,0.3865,0.4254,0.4402,1.494,0
2003/4/2 21:00,0,0,0,0.2161,0.3861,0.4461,0.4356,1.5666,0
2003/4/2 21:15,0,0,0,0.2164,0.3868,0.451,0.4818,1.4528,0
2003/4/2 21:30,0,0,0,0.2136,0.3855,0.3036,0.0978,1.224,0
2003/4/2 21:45,0,0,0,0.216,0.3881,0.088,0.0991,0.9757,0
2003/4/2 22:00,1.1239,0,0,0.2159,0.3868,0.216,0.4887,1.0132,0
2003/4/2 22:15,11.3178,0,0,0.2218,0.3849,0.3943,0.7631,1.1173,0
2003/4/2 22:30,11.269,0,0,0.2097,0.3845,0.3996,0.6434,1.1759,0
2003/4/2 22:45,11.3119,0,0,0.2137,0.3852,0.3934,0.372,1.0981,0
2003/4/2 23:00,11.4936,0,0,0.2193,0.3868,0.3915,0.0881,1.1688,0
2003/4/2 23:15,11.46,0,0,0.2223,0.3871,0.4108,0.1318,1.2426,0
2003/4/2 23:30,11.4399,0,0,0.212,0.3866,0.4127,0.1021,1.4062,0
2003/4/2 23:45,11.5566,0,0,0.2131,0.3885,0.4098,0.167,1.2129,0
2003/4/3 0:00,11.6225,0,0,1.7258,0.3881,0.4389,0.2115,0.863,0
2003/4/3 0:15,11.4238,0,0,0.7932,0.3845,0.444,0.4576,0.8672,0
2003/4/3 0:30,11.4044,0,0,0.124,0.3848,0.4421,0.5135,0.8745,0
2003/4/3 0:45,11.4385,0,0,0.1767,0.3855,0.0952,0.5037,0.9318,0
2003/4/3 1:00,11.5298,0,0,0.2105,0.3866,0.0425,0.1925,0.4562,0
2003/4/3 1:15,11.6052,0,0,0.3243,0.3871,0.0429,0.1511,0.1054,0
2003/4/3 1:30,11.6492,0,0,0.4206,0.3876,0.0429,0.1505,0.024,0
2003/4/3 1:45,11.6238,0,0,0.2759,0.3872,0.0428,0.198,0.1545,0
2003/4/3 2:00,11.6919,0,0,0.1958,0.3882,0.0432,0.1493,0.238,0
2003/4/3 2:15,11.7235,0,0,0.2458,0.3887,0.0433,0.1971,0.2196,0
2003/4/3 2:30,11.6438,0,0,0.248,0.3876,0.0429,0.1548,0.2262,0
2003/4/3 2:45,11.6502,0,0,0.2589,0.3878,0.0431,0.1555,0.2075,0
2003/4/3 3:00,11.5708,0,0,0.2501,0.3864,0.0425,0.2056,0.2056,0
2003/4/3 3:15,11.4183,0,0,0.2568,0.383,0.0423,0.156,0.2598,0
2003/4/3 3:30,11.4437,0,0,0.251,0.3839,0.0423,0.2084,0.2772,0
2003/4/3 3:45,11.4733,0,0,0.2536,0.3845,0.0425,0.1558,0.2863,0
2003/4/3 4:00,11.4797,0,0,0.2521,0.3843,0.0423,0.1568,0.29,0
2003/4/3 4:15,11.4719,0,0,0.2527,0.3842,0.0423,0.2033,0.2904,0
2003/4/3 4:30,11.4669,0,0,0.2547,0.4853,0.0426,0.1575,0.294,0
2003/4/3 4:45,11.4496,0,0,0.252,0.5953,0.0423,0.1882,0.2892,0
2003/4/3 5:00,11.4283,0,0,0.2534,0.3182,0.0423,0.1816,0.2784,0
2003/4/3 5:15,11.425,0,0,0.2533,0.3695,0.0423,0.158,0.2815,0
2003/4/3 5:30,11.5379,0,0,0.258,0.3761,0.0429,0.2052,0.2929,0
2003/4/3 5:45,11.5475,0,0,0.2534,0.3792,0.0429,0.1578,0.2916,0
2003/4/3 6:00,11.6248,0,0,0.2546,0.3823,0.0431,0.1581,0.239,0
2003/4/3 6:15,11.642,0,0,0.2544,0.3833,0.0432,0.2254,0.2517,0
2003/4/3 6:30,1.5549,0,0,0.2544,0.3832,0.1467,0.1551,0.4023,0
2003/4/3 6:45,6.0751,0,0,1.51,0.3822,0.41,0.1551,1.045,0
2003/4/3 7:00,11.4994,0,0,2.4101,0.3816,0.4334,0.1064,1.1612,0
2003/4/3 7:15,10.4121,0,0,0.2291,0.3826,0.4058,0.1064,1.1748,0
2003/4/3 7:30,1.3549,0,0,1.3549,0.3852,0.4147,0.1814,1.408,0
2003/4/3 7:45,0,0,0,2.9244,0.3876,0.4268,0.1007,1.1115,0
2003/4/3 8:00,0,0,0,0.2899,0.3884,0.1722,0.1534,0.6293,0
2003/4/3 8:15,0.0003,0,0,0.2117,0.3904,0.0768,0.1043,0.3937,0
2003/4/3 8:30,0,0,0,0.2215,0.3894,0.0789,0.1509,0.3855,0
2003/4/3 8:45,0.0003,0,0,0.2151,0.39,0.0428,0.1012,0.3727,0
2003/4/3 9:00,0,0,0,0.2087,0.3897,0.0429,0.1007,0.506,0
2003/4/3 9:15,0,0,0,0.2173,0.3888,0.0426,0.1513,0.3797,0
2003/4/3 9:30,0.0003,0,0,0.218,0.3908,0.0428,0.1017,0.5131,0
2003/4/3 9:45,0,0,0,0.2115,0.3905,0.0428,0.1551,0.4896,0
2003/4/3 10:00,0,0,0,0.2131,0.3901,0.0425,0.0995,0.5069,0
2003/4/3 10:15,0,0,0,0.8699,0.3912,0.1492,0.1058,1.1375,0
2003/4/3 10:30,0,0,0,0.2241,0.3923,0.4604,0.4892,0.6257,0
2003/4/3 10:45,0,0,0,0.1381,0.3918,0.4759,0.4877,0.7836,0
2003/4/3 11:00,0,0,0,0.138,0.3937,0.4909,0.7393,0.8788,0
2003/4/3 11:15,0.0003,0,0,0.1371,0.3941,0.4513,0.2686,0.8771,0
2003/4/3 11:30,0,0,0,0.14,0.3944,0.1008,0.0791,0.6576,0
2003/4/3 11:45,0,0,0,0.1354,0.3938,0.0948,0.1401,0.5806,0
2003/4/3 12:00,0,0,0,0.1403,0.3951,0.0881,0.0926,0.7432,0
2003/4/3 12:15,0,0,0,0.1349,0.3957,0.0884,0.0798,0.8309,0
2003/4/3 12:30,0,0,0,0.1401,0.3957,0.0881,0.1308,0.8739,0
2003/4/3 12:45,0,0,0,0.1381,0.3963,0.0884,0.0837,0.8309,0
2003/4/3 13:00,0,0,0,0.1372,0.3961,0.0884,0.0845,0.7705,0
2003/4/3 13:15,0,0,0,0.1354,0.3967,0.0886,0.1322,0.6028,0
2003/4/3 13:30,0,0,0,0.1382,0.397,0.0883,0.0847,0.2845,0
2003/4/3 13:45,0.0001,0,0,0.138,0.3963,0.0884,0.1509,0.2784,0
2003/4/3 14:00,0,0,0,0.1336,0.3967,0.0886,0.091,0.2775,0
2003/4/3 14:15,0,0,0,0.138,0.396,0.0884,0.0945,0.286,0
2003/4/3 14:30,0,0,0,0.1385,0.3972,0.0884,0.1426,0.2807,0
2003/4/3 14:45,0,0,0,0.1395,0.3972,0.0884,0.0907,0.2858,0
2003/4/3 15:00,0,0,0,0.1344,0.3979,0.0887,0.0933,0.2765,0
2003/4/3 15:15,0.0006,0,0,0.14,0.3973,0.0883,0.1367,0.2831,0
2003/4/3 15:30,0.0006,0,0,0.1325,0.3977,0.0884,0.0922,0.2925,0
2003/4/3 15:45,0,0,0,0.1437,0.3966,0.0883,0.1437,0.2912,0
2003/4/3 16:00,0,0,0,0.13,0.3972,0.0884,0.0888,0.2853,0
2003/4/3 16:15,0,0,0,0.1431,0.3961,0.0883,0.0919,0.2801,0
2003/4/3 16:30,0,0,0,0.1352,0.3967,0.0884,0.1372,0.2687,0
2003/4/3 16:45,0,0,0,0.1362,0.395,0.0884,0.0919,0.2771,0
2003/4/3 17:00,0,0,0,0.1404,0.3941,0.0878,0.0891,0.2776,0
2003/4/3 17:15,0,0,0,0.1346,0.3924,0.0878,0.1356,0.2837,0
2003/4/3 17:30,0,0,0,0.1401,0.3907,0.0877,0.0913,0.2733,0
2003/4/3 17:45,0.0003,0,0,0.1362,0.3944,0.0886,0.0871,0.2714,0
2003/4/3 18:00,0.0003,0,0,0.1398,0.3924,0.0883,0.1423,0.7246,0
2003/4/3 18:15,0,0,0,0.1423,0.3915,0.0884,0.0888,1.4796,0
2003/4/3 18:30,0,0,0,0.1385,0.3908,0.0878,0.0906,1.9194,0
2003/4/3 18:45,0,0,0,0.1382,0.3898,0.0883,0.1387,1.6559,0
2003/4/3 19:00,0,0,0,0.8968,0.3884,0.0878,0.0878,1.4321,0
2003/4/3 19:15,0,0,0,0.9233,0.3874,0.0606,0.1416,1.8439,0
2003/4/3 19:30,0,0,0,0.9432,0.3908,0.0419,0.0916,1.8897,0
2003/4/3 19:45,0,0,0,1.0755,0.5911,0.042,0.0914,1.4599,0
2003/4/3 20:00,0,0,0,0.1768,0.3855,0.0423,0.2611,1.3092,0
2003/4/3 20:15,0,0,0,0.1637,0.3735,0.0423,0.4517,1.2007,0
2003/4/3 20:30,0,0,0,0.1604,0.3804,0.0428,0.4752,1.185,0
2003/4/3 20:45,0,0,0,0.199,0.3833,0.0423,0.5422,1.261,0
2003/4/3 21:00,0,0,0,0.2115,0.3856,0.0425,0.2487,1.2979,0
2003/4/3 21:15,0,0,0,0.2091,0.3866,0.0428,0.095,0.8482,0
2003/4/3 21:30,0,0,0,0.2089,0.3838,0.3761,0.141,1.1461,0
2003/4/3 21:45,0.0003,0,0,0.2146,0.3862,0.3954,0.2609,1.1269,0
2003/4/3 22:00,1.0708,0,0,0.2147,0.3868,0.402,0.5099,1.0575,0
2003/4/3 22:15,11.4139,0,0,0.2159,0.3858,0.4105,0.501,0.9851,0
2003/4/3 22:30,11.3815,0,0,0.2118,0.3849,0.3855,0.4656,1.4836,0
2003/4/3 22:45,11.2726,0,0,0.217,0.3838,0.3797,0.4902,1.5293,0
2003/4/3 23:00,8.7117,0,0,1.1049,0.3832,0.4025,0.4375,1.1802,0
2003/4/3 23:15,1.4462,0,0,2.0866,0.3815,0.1889,0.485,0.9766,0
2003/4/3 23:30,1.475,0,0,0.1084,0.3853,0.0428,0.4673,0.933,0
2003/4/3 23:45,11.0929,0,0,0.1424,0.3861,0.0429,0.5174,0.8813,0
2003/4/4 0:00,7.399,0,0,0.1912,0.3868,0.0431,0.4666,0.9347,0
2003/4/4 0:15,1.4784,0,0,0.2094,0.3843,0.0428,0.4526,0.9183,0
2003/4/4 0:30,1.4718,0,0,0.2169,0.3843,0.0428,0.4941,0.9841,0
2003/4/4 0:45,5.9602,0,0,0.2184,0.3842,0.0428,0.1398,0.9451,0
2003/4/4 1:00,11.3149,0,0,0.2218,0.3852,0.0429,0.1505,0.6204,0
2003/4/4 1:15,1.493,0,0,0.218,0.3859,0.0429,0.2064,0.2792,0
2003/4/4 1:30,1.4797,0,0,0.2242,0.3835,0.0428,0.1561,0.2778,0
2003/4/4 1:45,1.4872,0,0,0.2615,0.3838,0.0429,0.2084,0.3623,0
2003/4/4 2:00,5.4001,0,0,0.418,0.3835,0.0428,0.1531,0.5498,0
2003/4/4 2:15,11.3426,0,0,0.2694,0.3826,0.0428,0.1502,0.5488,0
2003/4/4 2:30,1.5,0,0,0.2128,0.3851,0.0431,0.2002,0.2737,0
2003/4/4 2:45,1.5058,0,0,0.2458,0.3861,0.0435,0.1539,0.2667,0
2003/4/4 3:00,1.5012,0,0,0.252,0.384,0.0431,0.2009,0.2686,0
2003/4/4 3:15,1.4921,0,0,0.249,0.3839,0.0431,0.1528,0.2539,0
2003/4/4 3:30,9.5769,0,0,0.2529,0.3823,0.0429,0.1538,0.2868,0
2003/4/4 3:45,6.7192,0,0,0.2517,0.3823,0.0428,0.2085,0.3001,0
2003/4/4 4:00,1.5003,0,0,0.2532,0.3836,0.0432,0.1587,0.3014,0
2003/4/4 4:15,1.4993,0,0,0.2542,0.3833,0.0432,0.159,0.2951,0
2003/4/4 4:30,1.5012,0,0,0.2526,0.3823,0.0432,0.2089,0.2932,0
2003/4/4 4:45,3.8614,0,0,0.2553,0.3823,0.0431,0.1608,0.2845,0
2003/4/4 5:00,11.5883,0,0,0.2485,0.3799,0.0428,0.2061,0.3048,0
2003/4/4 5:15,2.2696,0,0,0.2563,0.3799,0.0429,0.16,0.3413,0
2003/4/4 5:30,1.49,0,0,0.2544,0.3799,0.0431,0.16,0.2796,0
2003/4/4 5:45,1.4891,0,0,0.253,0.3792,0.0428,0.2066,0.2958,0
2003/4/4 6:00,0.6996,0,0,0.2602,0.3804,0.0432,0.161,0.3655,0
2003/4/4 6:15,5.5669,0,0,0.254,0.3809,0.0435,0.2287,0.3264,0
2003/4/4 6:30,9.5525,0,0,0.2506,0.3792,0.0432,0.1722,0.322,0
2003/4/4 6:45,7.1518,0,0,0.2606,0.3777,0.2674,0.1922,0.9704,0
2003/4/4 7:00,10.9924,0,0,1.3323,0.3767,0.4317,0.8634,1.4322,0
2003/4/4 7:15,10.0007,0,0,1.4256,0.3796,0.4124,0.715,1.2851,0
2003/4/4 7:30,10.0369,0,0,0.9596,0.3761,0.4164,0.5651,1.1843,0
2003/4/4 7:45,0,0,0,0.7072,0.3807,0.417,0.719,1.3696,0
2003/4/4 8:00,0,0,0,0.1665,0.3816,0.4134,0.1794,1.243,0
2003/4/4 8:15,0.0006,0,0,0.168,0.3823,0.418,0.1155,1.2637,0
2003/4/4 8:30,0,0,0,0.2059,0.3812,0.3829,0.1577,1.1406,0
2003/4/4 8:45,0,0,0,0.6432,0.3807,0.4179,0.1017,1.1339,0
2003/4/4 9:00,0,0,0,0.2101,0.3823,0.13,0.1515,1.1003,0
2003/4/4 9:15,0,0,0,0.2133,0.3812,0.0429,0.087,1.1278,0
2003/4/4 9:30,0,0,0,0.2203,0.3813,0.0428,0.1519,1.2601,0
2003/4/4 9:45,0,0,0,0.214,0.3839,0.0428,0.0837,1.1809,0
2003/4/4 10:00,0,0,0,0.2195,0.383,0.0431,0.1115,1.1583,0
2003/4/4 10:15,0,0,0,0.1747,0.3838,0.0429,0.1526,1.185,0
2003/4/4 10:30,0,0,0,0.14,0.3843,0.0432,0.1018,1.0263,0
2003/4/4 10:45,0.0003,0,0,0.1375,0.5401,0.0429,0.1539,1.6907,0
2003/4/4 11:00,0,0,0,0.1369,0.5435,0.0429,0.1162,1.1874,0
2003/4/4 11:15,0,0,0,0.1359,0.343,0.0431,0.1153,0.9743,0
2003/4/4 11:30,0,0,0,0.1356,0.3768,0.0429,0.1608,0.984,0
2003/4/4 11:45,0,0,0,0.1416,0.3822,0.0432,0.1097,0.9455,0
2003/4/4 12:00,0,0,0,0.1333,0.3849,0.0513,0.1549,0.951,0
2003/4/4 12:15,0,0,0,0.1374,0.3874,0.0431,0.112,0.688,0
2003/4/4 12:30,0,0,0,2.3717,0.3885,0.0429,0.1316,0.77,0
2003/4/4 12:45,0,0,0,2.7291,0.3905,0.0431,0.139,0.8345,0
2003/4/4 13:00,0,0,0,0.1374,0.3921,0.0432,0.0917,0.8184,0
2003/4/4 13:15,0,0,0,0.1313,0.3948,0.0432,0.1428,0.8595,0
2003/4/4 13:30,0,0,0,0.1404,0.3989,0.0431,0.0981,0.8175,0
2003/4/4 13:45,0,0,0,0.1361,0.4006,0.0432,0.1156,0.8207,0
2003/4/4 14:00,0,0,0,0.1329,0.4003,0.0432,0.1577,0.7171,0
2003/4/4 14:15,0,0,0,0.14,0.4015,0.0432,0.106,0.6795,0
2003/4/4 14:30,0.0003,0,0,0.1325,0.4032,0.0433,0.1466,1.227,0
2003/4/4 14:45,0,0,0,0.1371,0.4023,0.0432,0.1077,1.4498,0
2003/4/4 15:00,0,0,0,0.1364,0.4008,0.0465,0.1048,0.8103,0
2003/4/4 15:15,0.0003,0,0,0.1377,0.4022,0.4733,0.1496,1.299,0
2003/4/4 15:30,0.0003,0,0,1.0722,0.4016,0.1558,0.1048,0.8922,0
2003/4/4 15:45,0,0,0,0.1403,0.4019,0.0431,0.1096,0.6647,0
2003/4/4 16:00,0,0,0,0.1392,0.4016,0.0431,0.1475,0.6771,0
2003/4/4 16:15,0.0003,0,0,1.2485,0.4008,0.0429,0.1015,0.7681,0
2003/4/4 16:30,0,0,0,2.2595,0.3995,0.0425,0.1509,1.1205,0
2003/4/4 16:45,0,0,0,0.3319,0.3995,0.0429,0.102,1.1534,0
2003/4/4 17:00,0,0,0,0.1345,0.3989,0.0422,0.1015,1.1235,0
2003/4/4 17:15,0,0,0,0.1372,0.398,0.0423,0.1506,1.1688,0
2003/4/4 17:30,0,0,0,0.1372,0.3976,0.0426,0.0996,2.6014,0
2003/4/4 17:45,0.0001,0,0,0.1322,0.4003,0.0428,0.0988,1.3365,0
2003/4/4 18:00,0,0,0,0.1348,0.3982,0.0423,0.1408,1.1134,0
2003/4/4 18:15,0,0,0,0.1338,0.3959,0.0464,0.1005,1.2987,0
2003/4/4 18:30,0,0,0,0.1358,0.3957,0.0697,0.1479,1.2109,0
2003/4/4 18:45,0.0003,0,0,0.1368,0.3995,0.4376,0.102,1.4813,0
2003/4/4 19:00,0,0,0,0.1356,0.3984,0.4431,0.0995,1.4301,0
2003/4/4 19:15,0,0,0,0.1328,0.399,0.4275,0.1499,1.3972,0
2003/4/4 19:30,0,0,0,0.1378,0.3996,0.4288,0.1002,1.4361,0
2003/4/4 19:45,0,0,0,0.1328,0.4003,0.4483,0.1547,1.5548,0
2003/4/4 20:00,0,0,0,0.1367,0.3997,0.1583,0.1031,1.3743,0
2003/4/4 20:15,0,0,0,0.1349,0.3997,0.0432,0.1017,1.608,0
2003/4/4 20:30,0,0,0,0.139,0.4023,0.0435,0.1485,1.7902,0
2003/4/4 20:45,0,0,0,1.569,0.3963,0.0425,0.1012,1.4262,0
2003/4/4 21:00,0,0,0,0.1368,0.3957,0.2344,0.1027,1.6847,0
2003/4/4 21:15,0,0,0,0.1375,0.3951,0.3671,0.1482,1.5941,0
2003/4/4 21:30,0,0,0,0.139,0.3943,0.3766,0.1017,1.9921,0
2003/4/4 21:45,0.0003,0,0,0.1323,0.3966,0.1218,0.1486,1.6099,0
2003/4/4 22:00,1.0557,0,0,0.1384,0.3948,0.0425,0.0858,0.92,0
2003/4/4 22:15,11.381,0,0,0.1488,0.3943,0.1727,0.0933,0.9688,0
2003/4/4 22:30,11.3177,0,0,2.9091,0.3895,0.3984,0.1374,1.5329,0
2003/4/4 22:45,11.2955,0,0,0.2555,0.392,0.4082,0.0942,1.1133,0
2003/4/4 23:00,11.2925,0,0,0.0526,0.3918,0.3963,0.3943,1.0086,0
2003/4/4 23:15,11.418,0,0,0.0959,0.3937,0.4356,0.4045,1.0043,0
2003/4/4 23:30,11.4337,0,0,0.6214,0.3944,0.4297,0.4573,0.9948,0
2003/4/4 23:45,11.6104,0,0,0.142,0.3961,0.4442,0.5109,0.9904,0
2003/4/5 0:00,11.3423,0,0,0.143,0.3917,0.4409,0.4369,0.9746,0
2003/4/5 0:15,10.4784,0,0,0.1421,0.3918,0.4503,0.4679,0.8889,0
2003/4/5 0:30,0.2802,0,0,0.1446,0.3956,0.4437,0.5422,0.6805,0
2003/4/5 0:45,2.7811,0,0,0.1417,0.3933,0.4468,0.5236,0.7674,0
2003/4/5 1:00,11.4889,0,0,0.1381,0.3943,0.2442,0.4274,0.7422,0
2003/4/5 1:15,11.5776,0,0,0.141,0.3946,0.0426,0.2068,0.3135,0